Lincoln, NE

10:57 AM CST on January 21, 2017 (GMT -0600)
Lincoln Municipal Airport

Weather History for KLNK - September, 2011

Change the Weather History Date:

Monday, September 5, 2011

  Actual Average Record
Temperature  
Mean Temperature 59 °F 70 °F  
Max Temperature 72 °F 83 °F 103 °F (1913)
Min Temperature 45 °F 58 °F 43 °F (1974)
Degree Days  
Heating Degree Days 6 1  
Month to date heating degree days 9 5  
Since 1 July heating degree days 9 11  
Cooling Degree Days 0 6  
Month to date cooling degree days 38 35  
Year to date cooling degree days 1237 1070  
Growing Degree Days 8 (Base 50)    
Moisture  
Dew Point 47 °F    
Average Humidity 67    
Maximum Humidity 93    
Minimum Humidity 41    
Precipitation  
Precipitation 0.00 in 0.11 in 3.06 in (1956)
Month to date precipitation 0.81 0.58  
Year to date precipitation 24.48 22.16  
Snow  
Snow 0.00 in 0.00 in - ()
Month to date snowfall 0.0 0.0  
Since 1 July snowfall 0.0 0.0  
Snow Depth 0.00 in    
Sea Level Pressure  
Sea Level Pressure 30.19 in    
Wind  
Wind Speed 3 mph (NE)    
Max Wind Speed 12 mph    
Max Gust Speed 14 mph    
Visibility 10 miles    
Events      
T = Trace of Precipitation, MM = Missing Value Source: NWS Daily Summary

Daily Weather History Graph

Daily Weather History Graph

Search for Another Location

Airport or City:

Trip Planner

Search our weather history database for the weather conditions in past years. The results will help you decide how hot, cold, wet, or windy it might be!

Date:

Astronomy

Sep. 05, 2011 Rise Set
Actual Time 6:57 AM CDT 7:53 PM CDT
Civil Twilight 6:29 AM CDT 8:21 PM CDT
Nautical Twilight 5:56 AM CDT 8:54 PM CDT
Astronomical Twilight 5:21 AM CDT 9:28 PM CDT
Moon 3:41 PM CDT (9/5) 12:13 AM CDT (9/5)
Length of Visible Light 13h 51m
Length of Day
12h 55m
First Quarter, 61% of the Moon is Illuminated
Sep 5
First Quarter
Sep 12
Full
Sep 20
Last Quarter
Sep 27
New
Oct 3
First Quarter

Hourly Weather History & Observations

Time (CDT) Temp. Windchill Dew Point Humidity Pressure Visibility Wind Dir Wind Speed Gust Speed Precip Events Conditions
12:54 AM 52.0 °F - 48.0 °F 86% 30.23 in 10.0 mi North 6.9 mph - N/A   Clear
1:54 AM 51.8 °F - 46.4 °F 82% 30.24 in 10.0 mi North 3.5 mph - N/A   Clear
2:54 AM 48.0 °F - 46.0 °F 93% 30.22 in 10.0 mi North 3.5 mph - N/A   Clear
3:54 AM 48.9 °F - 46.0 °F 90% 30.23 in 10.0 mi North 3.5 mph - N/A   Clear
4:54 AM 46.0 °F 44.8 °F 44.1 °F 93% 30.23 in 10.0 mi North 3.5 mph - N/A   Clear
5:54 AM 46.0 °F 44.8 °F 44.1 °F 93% 30.23 in 10.0 mi NNE 3.5 mph - N/A   Clear
6:54 AM 46.4 °F - 44.6 °F 93% 30.25 in 10.0 mi Calm Calm - N/A   Clear
7:54 AM 48.0 °F - 46.0 °F 93% 30.25 in 10.0 mi North 3.5 mph - N/A   Clear
8:54 AM 55.0 °F - 48.9 °F 80% 30.27 in 10.0 mi Calm Calm - N/A   Clear
9:54 AM 60.8 °F - 51.8 °F 72% 30.26 in 10.0 mi Calm Calm - N/A   Clear
10:54 AM 64.9 °F - 48.0 °F 54% 30.25 in 10.0 mi Variable 3.5 mph - N/A   Clear
11:54 AM 66.9 °F - 48.0 °F 51% 30.24 in 10.0 mi Calm Calm - N/A   Partly Cloudy
12:54 PM 66.9 °F - 45.0 °F 45% 30.22 in 10.0 mi Calm Calm - N/A   Clear
1:54 PM 70.0 °F - 46.9 °F 44% 30.19 in 10.0 mi Variable 4.6 mph - N/A   Clear
2:54 PM 70.0 °F - 46.9 °F 44% 30.17 in 10.0 mi ESE 4.6 mph - N/A   Clear
3:54 PM 71.1 °F - 46.0 °F 41% 30.14 in 10.0 mi East 4.6 mph - N/A   Clear
4:54 PM 71.1 °F - 48.0 °F 44% 30.13 in 10.0 mi Variable 6.9 mph - N/A   Clear
5:54 PM 70.0 °F - 46.0 °F 42% 30.12 in 10.0 mi East 4.6 mph - N/A   Clear
6:54 PM 68.0 °F - 48.0 °F 49% 30.12 in 10.0 mi ESE 8.1 mph - N/A   Clear
7:54 PM 64.9 °F - 48.0 °F 54% 30.11 in 10.0 mi SE 8.1 mph - N/A   Clear
8:54 PM 61.0 °F - 48.9 °F 64% 30.12 in 10.0 mi SE 6.9 mph - N/A   Clear
9:54 PM 59.0 °F - 48.0 °F 67% 30.13 in 10.0 mi SE 3.5 mph - N/A   Clear
10:54 PM 60.1 °F - 48.0 °F 64% 30.13 in 10.0 mi Calm Calm - N/A   Clear
11:54 PM 53.1 °F - 48.0 °F 83% 30.14 in 10.0 mi Calm Calm - N/A   Clear